User: anonymous   Login
Location: Mauna Kea VIS
(19.7591°N, 155.4561°W)
Time: 15:10:44
(UTC-10:00)
Language:

Cosmos 1624 Rocket - Orbit

View from above orbital plane
View from above orbital plane
View from above satellite
View from above satellite

Ground track
Ground track

The orbit data is extracted from the following two-line orbital elements,

1 15483U 85006B   17023.84417951  .00000056  00000-0  28215-4 0  9995
2 15483  74.0451 260.1576 0019934 276.1328 137.8594 14.36159369675839
Epoch (UTC): 23 January 2017 20:15:37
Eccentricity: 0.0019934
inclination: 74.0451°
perigee height: 757 km
apogee height: 785 km
right ascension of ascending node: 260.1576°
argument of perigee: 276.1328°
revolutions per day: 14.36159369
mean anomaly at epoch: 137.8594°
orbit number at epoch: 67583

The dashed part of the orbit path shows where the satellite is in the earth's shadow,  

DLR